Norfolk, VA

9:56 PM EST on December 11, 2017 (GMT -0500)
Norfolk International

Weather History for KORF - February, 2013

Change the Weather History Date:

Wednesday, February 27, 2013

  Actual Average Record
Temperature  
Mean Temperature 53 °F 45 °F  
Max Temperature 63 °F 53 °F 82 °F (1997)
Min Temperature 42 °F 36 °F 14 °F (1934)
Degree Days  
Heating Degree Days 12 20  
Month to date heating degree days 590 606  
Since 1 July heating degree days 2355 2548  
Cooling Degree Days 0 0  
Month to date cooling degree days 0 0  
Year to date cooling degree days 0 0  
Growing Degree Days 3 (Base 50)    
Moisture  
Dew Point 44 °F    
Average Humidity 68    
Maximum Humidity 93    
Minimum Humidity 43    
Precipitation  
Precipitation 0.00 in 0.12 in 1.23 in (1982)
Month to date precipitation 4.80 3.01  
Year to date precipitation 7.56 6.41  
Snow  
Snow 0.00 in 0.00 in 3.00 in (1924)
Month to date snowfall 0.2 1.9  
Since 1 July snowfall 1.8 5.5  
Snow Depth 0.00 in    
Sea Level Pressure  
Sea Level Pressure 29.65 in    
Wind  
Wind Speed 7 mph (WSW)    
Max Wind Speed 16 mph    
Max Gust Speed 22 mph    
Visibility 10 miles    
Events      
T = Trace of Precipitation, MM = Missing Value Source: NWS Daily Summary

Daily Weather History Graph

Daily Weather History Graph

Search for Another Location

Airport or City:

Trip Planner

Search our weather history database for the weather conditions in past years. The results will help you decide how hot, cold, wet, or windy it might be!

Date:

Astronomy

Feb. 27, 2013 Rise Set
Actual Time 6:38 AM EST 5:57 PM EST
Civil Twilight 6:11 AM EST 6:23 PM EST
Nautical Twilight 5:41 AM EST 6:53 PM EST
Astronomical Twilight 5:11 AM EST 7:23 PM EST
Moon 8:11 PM EST (2/27) 7:16 AM EST (2/27)
Length of Visible Light 12h 11m
Length of Day
11h 19m
Waning Gibbous, 96% of the Moon is Illuminated
Feb 27
Waning Gibbous
Mar 4
Last Quarter
Mar 11
New
Mar 19
First Quarter
Mar 27
Full

Hourly Weather History & Observations

Time (EST) Temp. Windchill Dew Point Humidity Pressure Visibility Wind Dir Wind Speed Gust Speed Precip Events Conditions
12:03 AM 62.6 °F - 60.8 °F 94% 29.55 in 7.0 mi Variable 6.9 mph - N/A   Overcast
12:22 AM 62.6 °F - 60.8 °F 94% 29.55 in 9.0 mi WSW 6.9 mph - N/A   Scattered Clouds
12:51 AM 62.1 °F - 60.1 °F 93% 29.57 in 10.0 mi West 4.6 mph - N/A   Overcast
1:51 AM 59.0 °F - 55.9 °F 90% 29.57 in 10.0 mi WSW 3.5 mph - N/A   Mostly Cloudy
2:51 AM 53.1 °F - 50.0 °F 89% 29.56 in 10.0 mi WSW 4.6 mph - N/A   Clear
3:51 AM 50.0 °F - 46.9 °F 89% 29.56 in 10.0 mi SW 8.1 mph - N/A   Clear
4:51 AM 52.0 °F - 48.0 °F 86% 29.57 in 10.0 mi SW 12.7 mph - N/A   Clear
5:51 AM 52.0 °F - 46.9 °F 83% 29.58 in 10.0 mi WSW 12.7 mph - N/A   Clear
6:51 AM 50.0 °F - 46.0 °F 86% 29.60 in 10.0 mi WSW 11.5 mph - N/A   Mostly Cloudy
7:27 AM 50.0 °F - 44.6 °F 82% 29.63 in 10.0 mi Variable 6.9 mph 19.6 mph N/A   Overcast
7:51 AM 48.9 °F - 44.1 °F 83% 29.64 in 10.0 mi WSW 11.5 mph 17.3 mph N/A   Overcast
7:58 AM 48.2 °F - 44.6 °F 87% 29.65 in 10.0 mi West 9.2 mph 17.3 mph N/A   Overcast
8:51 AM 46.9 °F - 43.0 °F 86% 29.68 in 10.0 mi WSW 6.9 mph 19.6 mph N/A   Overcast
9:51 AM 46.9 °F - 43.0 °F 86% 29.70 in 10.0 mi WSW 6.9 mph - N/A   Overcast
10:36 AM 48.2 °F - 42.8 °F 82% 29.71 in 10.0 mi WSW 11.5 mph - N/A   Overcast
10:51 AM 48.9 °F - 42.1 °F 77% 29.71 in 10.0 mi West 9.2 mph 17.3 mph N/A   Overcast
11:51 AM 53.1 °F - 44.1 °F 71% 29.70 in 10.0 mi WSW 6.9 mph - N/A   Scattered Clouds
12:51 PM 55.0 °F - 42.1 °F 62% 29.69 in 10.0 mi West 9.2 mph 17.3 mph N/A   Clear
1:51 PM 59.0 °F - 42.1 °F 53% 29.69 in 10.0 mi SW 9.2 mph 19.6 mph N/A   Mostly Cloudy
2:51 PM 60.1 °F - 39.0 °F 46% 29.68 in 10.0 mi WSW 12.7 mph 18.4 mph N/A   Mostly Cloudy
3:51 PM 59.0 °F - 37.9 °F 46% 29.67 in 10.0 mi WSW 9.2 mph 16.1 mph N/A   Clear
4:51 PM 59.0 °F - 37.0 °F 44% 29.68 in 10.0 mi WSW 6.9 mph - N/A   Clear
5:51 PM 57.0 °F - 35.1 °F 44% 29.69 in 10.0 mi WSW 8.1 mph - N/A   Clear
6:51 PM 51.1 °F - 36.0 °F 56% 29.71 in 10.0 mi Calm Calm - N/A   Clear
7:51 PM 48.9 °F - 39.0 °F 69% 29.71 in 10.0 mi Calm Calm - N/A   Clear
8:51 PM 46.0 °F - 39.9 °F 79% 29.71 in 10.0 mi Calm Calm - N/A   Clear
9:51 PM 46.0 °F 43.9 °F 37.9 °F 73% 29.70 in 10.0 mi South 4.6 mph - N/A   Clear
10:51 PM 46.0 °F 43.9 °F 37.9 °F 73% 29.70 in 10.0 mi SSW 4.6 mph - N/A   Clear
11:51 PM 46.0 °F - 37.9 °F 73% 29.68 in 10.0 mi Calm Calm - N/A   Overcast